THOR ABLESTAR DEB, 15783

Orbit data source: Space-Track

THOR ABLESTAR DEB, 15783 is space debris in LEO originally from a launch on Thu, 29 Jun 1961 UTC launched from the Air Force Eastern Test Range (AFETR). Debris objects in space refer to the collection of defunct objects orbiting the Earth. Examples of debris include non-operational satellites, rocket bodies, and fragments generated from explosions, collisions, or faulty payload assembly.

Loading next visibility...
Identifier
15783, 1961-015LG
Orbit
LEO
Country
Flag of USUS
Related business
Manufacturer
Unknown
Mission
Spacecraft
Bus & Motor
Unknown
Mass
Unknown
Launch date (UTC)
1961-06-29 (65 years ago)
Launch vehicle
Unknown
Launch site
Air Force Eastern Test Range (AFETR)
Object type
Payload
Rocket body
Debris
Shape & HBR
Unknown shape, 0.1 m
Radar Cross Section
Small (<0.1 m²)

Expand to show TLE details & history
Last TLE update: 1 day ago

TLE from 1 day ago
0 THOR ABLESTAR DEB
1 15783U 61015LG  26104.34235303  .00003562  00000-0  44485-3 0  9997
2 15783  67.0367 225.5680 0042564 279.2447 115.0864 14.82993289173358
Epoch: 2026-04-14T08:12Z
TLE epoch observation values (Epoch: 2026-04-14T08:12:59.301Z)
Latitude
31.75094°
Longitude
-85.08186°
Altitude
635.919 km
Speed
7.537 km/s
True Right ascension
16h 02m 44s
True Declination
31° 35' 41"
Sunlit
Object was in full shadow at epoch
Visualization orbit readout
Latitude
Unknown
Longitude
Unknown
Altitude
Unknown
Speed
Unknown
Apparent Right ascension
Unknown
Apparent Declination
Unknown
Sunlit
N/A
Visualization observer readout
Local Sidereal Time
20:25:08
Azimuth
Unknown
Elevation
Unknown
Doppler factor
Unknown
Orbital elements
Apogee altitude
647.966 km
Perigee altitude
588.407 km
Semi-major axis
6,996.323 km
Eccentricity
0.00426
Inclination
67.0367°
RAAN
225.568°
Arg. of periapsis
279.2447°
True anomaly
115.52714°
Mean anomaly
115.0864°
Eccentric anomaly
115.30687°
Mean motion
3.70884 °/min
Orbital period
97.07 mins
BSTAR
0.00044485

Documentation

Showing up to 5 results
|